Regional Weather Roundup
Issued by NWS

Home | Current Version | Previous Version | Graphics & Text | Print | Product List | Glossary On
Versions: 1 2 3 4 5 6 7 8 9 10 11 12 13 14 15 16 17 18 19 20 21 22 23 24 25 26 27 28 29 30 31 32 33 34 35 36 37 38 39 40 41 42 43 44 45 46 47 48 49 50
000
ASUS43 KLMK 292202
RWRKY
KENTUCKY REGIONAL WEATHER ROUNDUP
NATIONAL WEATHER SERVICE LOUISVILLE KY
600 PM EDT MON SEP 29 2014

NOTE "FAIR" INDICATES FEW OR NO CLOUDS BELOW 12,000 FEET
WITH NO SIGNIFICANT WEATHER AND/OR OBSTRUCTIONS TO VISIBILITY.

KYZ001>023-026-027-061>063-070>075-292300-
WESTERN AND SOUTH CENTRAL KENTUCKY

CITY           SKY/WX    TMP DP  RH WIND       PRES   REMARKS
PADUCAH        SUNNY     85  51  31 NW5       29.93F
HENDERSON      NOT AVBL
OWENSBORO      SUNNY     85  52  32 NW7       29.94F
HOPKINSVILLE   SUNNY     81  58  44 N6        29.93F
BOWLING GREEN  PTSUNNY   86  55  34 W5        29.93F
GLASGOW        NOT AVBL
$$

KYZ024-025-028>034-038-045-046-053-292300-
NORTH CENTRAL KENTUCKY

CITY           SKY/WX    TMP DP  RH WIND       PRES   REMARKS
LOUISVILLE/SDF MOSUNNY   83  52  34 NW9       29.93F
LOUISVILLE/LOU SUNNY     83  51  33 N6        29.94S
FORT KNOX      SUNNY     80  53  38 NW6       29.94S
$$

KYZ035>037-039>044-047>052-055>060-089>105-292300-
NORTHEAST KENTUCKY

CITY           SKY/WX    TMP DP  RH WIND       PRES   REMARKS
LEXINGTON      SUNNY     82  51  34 W6        29.95S
COVINGTON      MOSUNNY   81  51  35 W8        29.94S
FRANKFORT      SUNNY     81  50  33 NW5       29.94S
$$

KYZ054-064>069-076>088-106>120-292300-
SOUTHEAST KENTUCKY

CITY           SKY/WX    TMP DP  RH WIND       PRES   REMARKS
JACKSON        SUNNY     76  62  62 CALM      29.96F
LONDON         CLOUDY    81  59  47 NW6       29.96F
SOMERSET       NOT AVBL
MIDDLESBORO    SUNNY     76  62  61 CALM      29.96S
MONTICELLO     CLEAR     81  61  50 CALM      29.96F
$$




USA.gov is the U.S. government's official web portal to all federal, state and local government web resources and services.